Charleston, WV

11:08 PM EDT on August 24, 2019 (GMT -0400)
Yeager Airport

Weather History for KCRW - June, 2019

Change the Weather History Date:

Sunday, June 2, 2019

  Actual Average Record
Temperature  
Mean Temperature 70 °F 68 °F  
Max Temperature 81 °F 79 °F 96 °F (1925)
Min Temperature 58 °F 58 °F 35 °F (1966)
Degree Days  
Heating Degree Days 0 1  
Month to date heating degree days 0 2  
Since 1 June heating degree days 0 2  
Since 1 July heating degree days 4144 4467  
Cooling Degree Days 5 5  
Month to date cooling degree days 9 9  
Year to date cooling degree days 205 119  
Since 1 June cooling degree days 9 9  
Growing Degree Days 19 (Base 50)    
Moisture  
Dew Point 61 °F    
Average Humidity 77    
Maximum Humidity 100    
Minimum Humidity 54    
Precipitation  
Precipitation T in 0.16 in 2.00 in (1942)
Month to date precipitation T 0.32  
Year to date precipitation 22.23 18.46  
Sea Level Pressure  
Sea Level Pressure 29.82 in    
Wind  
Wind Speed 5 mph (West)    
Max Wind Speed 14 mph    
Max Gust Speed 20 mph    
Visibility 10 miles    
Events Rain , Thunderstorm    
T = Trace of Precipitation, MM = Missing Value Source: NWS Daily Summary

Daily Weather History Graph

Daily Weather History Graph

Search for Another Location

Airport or City:

Astronomy

Jun. 02, 2019 Rise Set
Actual Time 6:04 AM EDT 8:44 PM EDT
Civil Twilight 5:33 AM EDT 9:16 PM EDT
Nautical Twilight 4:54 AM EDT 9:54 PM EDT
Astronomical Twilight 4:10 AM EDT 10:38 PM EDT
Moon 5:41 AM EDT (6/2) 8:03 PM EDT (6/2)
Length of Visible Light 15h 42m
Length of Day
14h 40m
Waning Crescent, 1% of the Moon is Illuminated
Jun 2
Waning Crescent
Jun 3
New
Jun 10
First Quarter
Jun 17
Full
Jun 25
Last Quarter

Hourly Weather History & Observations

Time (EDT) Temp. Dew Point Humidity Pressure Visibility Wind Dir Wind Speed Gust Speed Precip Events Conditions
12:54 AM 62.1 °F 60.1 °F 93% 29.83 in 10.0 mi Calm Calm - N/A   Clear
1:54 AM 61.0 °F 60.1 °F 97% 29.83 in 10.0 mi Calm Calm - N/A   Partly Cloudy
2:54 AM 60.1 °F 59.0 °F 96% 29.81 in 10.0 mi Calm Calm - N/A   Partly Cloudy
3:54 AM 59.0 °F 57.9 °F 96% 29.80 in 10.0 mi Calm Calm - N/A   Partly Cloudy
4:54 AM 59.0 °F 57.9 °F 96% 29.80 in 10.0 mi Calm Calm - N/A   Partly Cloudy
5:54 AM 57.9 °F 57.9 °F 100% 29.80 in 10.0 mi Calm Calm - N/A   Scattered Clouds
6:54 AM 59.0 °F 57.9 °F 96% 29.81 in 10.0 mi Calm Calm - N/A   Scattered Clouds
7:54 AM 61.0 °F 59.0 °F 93% 29.81 in 10.0 mi Calm Calm - N/A   Scattered Clouds
8:54 AM 66.9 °F 62.1 °F 84% 29.83 in 10.0 mi WSW 5.8 mph - N/A   Partly Cloudy
9:54 AM 72.0 °F 62.1 °F 71% 29.83 in 10.0 mi SW 10.4 mph - N/A   Scattered Clouds
10:54 AM 73.9 °F 62.1 °F 66% 29.82 in 10.0 mi WSW 8.1 mph - N/A   Mostly Cloudy
11:54 AM 78.1 °F 63.0 °F 60% 29.81 in 10.0 mi WSW 10.4 mph - N/A   Scattered Clouds
12:54 PM 78.1 °F 61.0 °F 56% 29.81 in 10.0 mi WSW 13.8 mph - N/A   Scattered Clouds
1:54 PM 79.0 °F 61.0 °F 54% 29.77 in 10.0 mi WSW 8.1 mph 18.4 mph N/A   Scattered Clouds
2:31 PM 75.9 °F 61.0 °F 60% 29.80 in 10.0 mi WSW 11.5 mph - N/A Thunderstorm Thunderstorm
2:54 PM 75.9 °F 62.1 °F 62% 29.77 in 10.0 mi SW 8.1 mph - N/A Thunderstorm Thunderstorm
3:54 PM 77.0 °F 62.1 °F 60% 29.76 in 10.0 mi WSW 11.5 mph - N/A Thunderstorm Thunderstorm
4:54 PM 73.9 °F 64.9 °F 73% 29.80 in 10.0 mi NW 8.1 mph - N/A Thunderstorm Thunderstorm
5:54 PM 73.0 °F 63.0 °F 71% 29.80 in 10.0 mi West 5.8 mph - 0.00 in Thunderstorm Thunderstorm
6:54 PM 73.0 °F 61.0 °F 66% 29.82 in 10.0 mi SW 4.6 mph - N/A Thunderstorm Thunderstorm
7:54 PM 72.0 °F 61.0 °F 68% 29.84 in 10.0 mi WSW 5.8 mph - N/A Thunderstorm Thunderstorm
8:47 PM 70.0 °F 63.0 °F 78% 29.88 in 10.0 mi NW 4.6 mph - N/A   Scattered Clouds
8:54 PM 69.1 °F 63.0 °F 81% 29.86 in 10.0 mi NNW 3.5 mph - N/A   Scattered Clouds
9:54 PM 69.1 °F 60.1 °F 73% 29.88 in 10.0 mi Variable 4.6 mph - N/A   Scattered Clouds
10:54 PM 68.0 °F 59.0 °F 73% 29.90 in 10.0 mi NE 4.6 mph - N/A   Mostly Cloudy
11:54 PM 64.9 °F 57.9 °F 78% 29.91 in 10.0 mi NNE 3.5 mph - N/A   Mostly Cloudy